Time,TemperatureF,DewpointF,PressureIn,WindDirection,WindDirectionDegrees,WindSpeedMPH,WindSpeedGustMPH,Humidity,HourlyPrecipIn,Conditions,Clouds,dailyrainin,SoftwareType,DateUTC
2013-01-19 00:00:00,53.0,32.8,30.11,NNW,337,0.0,0.0,46,0.00,,,0.00,WeatherTracker,2013-01-19 08:00:00,
2013-01-19 00:05:00,52.3,33.7,30.11,NNW,345,0.0,0.0,49,0.00,,,0.00,WeatherTracker,2013-01-19 08:05:00,
2013-01-19 00:10:00,51.4,32.9,30.11,NNW,339,0.0,0.0,49,0.00,,,0.00,WeatherTracker,2013-01-19 08:10:00,
2013-01-19 00:15:00,51.1,33.1,30.11,NNW,331,0.0,0.0,50,0.00,,,0.00,WeatherTracker,2013-01-19 08:15:00,
2013-01-19 00:20:00,51.0,33.0,30.11,NNW,329,0.0,0.0,50,0.00,,,0.00,WeatherTracker,2013-01-19 08:20:00,
2013-01-19 00:25:00,51.3,32.8,30.11,NW,325,0.0,0.0,49,0.00,,,0.00,WeatherTracker,2013-01-19 08:25:00,
2013-01-19 00:30:00,51.2,32.7,30.11,NNW,339,0.0,0.0,49,0.00,,,0.00,WeatherTracker,2013-01-19 08:30:00,
2013-01-19 00:35:00,51.1,32.6,30.11,NNW,338,0.0,0.0,49,0.00,,,0.00,WeatherTracker,2013-01-19 08:35:00,
2013-01-19 00:40:00,51.0,32.5,30.11,NNW,335,0.0,0.0,49,0.00,,,0.00,WeatherTracker,2013-01-19 08:40:00,
2013-01-19 00:45:00,51.0,32.5,30.11,NNW,330,0.0,0.0,49,0.00,,,0.00,WeatherTracker,2013-01-19 08:45:00,
2013-01-19 00:50:00,50.7,32.7,30.11,NW,318,0.0,0.0,50,0.00,,,0.00,WeatherTracker,2013-01-19 08:50:00,
2013-01-19 00:55:00,50.2,32.3,30.11,NNW,327,0.0,0.0,50,0.00,,,0.00,WeatherTracker,2013-01-19 08:55:00,
2013-01-19 01:00:00,50.3,32.9,30.11,NW,314,0.0,0.0,51,0.00,,,0.00,WeatherTracker,2013-01-19 09:00:00,
2013-01-19 01:05:00,50.2,33.3,30.11,NW,325,0.0,0.0,52,0.00,,,0.00,WeatherTracker,2013-01-19 09:05:00,
2013-01-19 01:10:00,50.1,33.2,30.11,NW,321,0.0,0.0,52,0.00,,,0.00,WeatherTracker,2013-01-19 09:10:00,
2013-01-19 01:15:00,50.2,33.3,30.11,NW,315,0.0,0.0,52,0.00,,,0.00,WeatherTracker,2013-01-19 09:15:00,
2013-01-19 01:20:00,50.1,33.6,30.11,NW,317,0.0,0.0,53,0.00,,,0.00,WeatherTracker,2013-01-19 09:20:00,
2013-01-19 01:26:00,49.6,33.6,30.11,NW,321,0.0,0.0,54,0.00,,,0.00,WeatherTracker,2013-01-19 09:26:00,
2013-01-19 01:31:00,49.5,33.6,30.11,NW,323,0.0,0.0,54,0.00,,,0.00,WeatherTracker,2013-01-19 09:31:00,
2013-01-19 01:36:00,49.0,34.0,30.11,NW,323,0.0,0.0,56,0.00,,,0.00,WeatherTracker,2013-01-19 09:36:00,
2013-01-19 01:41:00,48.5,33.1,30.11,NW,322,0.0,0.0,55,0.00,,,0.00,WeatherTracker,2013-01-19 09:41:00,
2013-01-19 01:46:00,48.7,32.8,30.12,NW,319,0.0,0.0,54,0.00,,,0.00,WeatherTracker,2013-01-19 09:46:00,
2013-01-19 01:51:00,49.2,33.7,30.12,NW,320,0.0,0.0,55,0.00,,,0.00,WeatherTracker,2013-01-19 09:51:00,
2013-01-19 01:56:00,49.3,33.8,30.12,NW,321,0.0,0.0,55,0.00,,,0.00,WeatherTracker,2013-01-19 09:56:00,
2013-01-19 02:01:00,49.1,34.1,30.12,North,355,0.0,0.0,56,0.00,,,0.00,WeatherTracker,2013-01-19 10:01:00,
2013-01-19 02:06:00,49.1,34.1,30.12,NW,325,0.0,0.0,56,0.00,,,0.00,WeatherTracker,2013-01-19 10:06:00,
2013-01-19 02:11:00,49.4,34.4,30.12,NNW,333,0.0,0.0,56,0.00,,,0.00,WeatherTracker,2013-01-19 10:11:00,
2013-01-19 02:16:00,49.4,34.4,30.12,NW,322,0.0,0.0,56,0.00,,,0.00,WeatherTracker,2013-01-19 10:16:00,
2013-01-19 02:21:00,49.4,34.8,30.12,NNW,338,0.0,0.0,57,0.00,,,0.00,WeatherTracker,2013-01-19 10:21:00,
2013-01-19 02:27:00,49.5,34.5,30.12,NW,313,0.0,0.0,56,0.00,,,0.00,WeatherTracker,2013-01-19 10:27:00,
2013-01-19 02:32:00,49.3,34.3,30.13,NW,321,0.0,0.0,56,0.00,,,0.00,WeatherTracker,2013-01-19 10:32:00,
2013-01-19 02:37:00,48.6,34.5,30.13,NNW,344,0.0,0.0,58,0.00,,,0.00,WeatherTracker,2013-01-19 10:37:00,
2013-01-19 02:42:00,47.7,35.3,30.13,NNW,348,0.0,0.0,62,0.00,,,0.00,WeatherTracker,2013-01-19 10:42:00,
2013-01-19 02:47:00,46.7,35.2,30.13,NNW,334,0.0,0.0,64,0.00,,,0.00,WeatherTracker,2013-01-19 10:47:00,
2013-01-19 02:52:00,46.7,34.0,30.13,NW,317,0.0,0.0,61,0.00,,,0.00,WeatherTracker,2013-01-19 10:52:00,
2013-01-19 02:57:00,47.7,34.1,30.13,NW,326,0.0,0.0,59,0.00,,,0.00,WeatherTracker,2013-01-19 10:57:00,
2013-01-19 03:02:00,48.0,34.4,30.13,NW,319,0.0,0.0,59,0.00,,,0.00,WeatherTracker,2013-01-19 11:02:00,
2013-01-19 03:07:00,48.4,36.4,30.13,WNW,301,0.0,0.0,63,0.00,,,0.00,WeatherTracker,2013-01-19 11:07:00,
2013-01-19 03:12:00,49.3,34.7,30.13,NW,325,0.0,0.0,57,0.00,,,0.00,WeatherTracker,2013-01-19 11:12:00,
2013-01-19 04:47:00,47.6,34.8,30.13,North,350,0.0,0.0,61,0.00,,,0.00,WeatherTracker,2013-01-19 12:47:00,
2013-01-19 04:48:00,47.8,35.0,30.13,NNW,329,0.0,0.0,61,0.00,,,0.00,WeatherTracker,2013-01-19 12:48:00,
2013-01-19 04:50:00,47.9,34.7,30.13,NW,321,0.0,0.0,60,0.00,,,0.00,WeatherTracker,2013-01-19 12:50:00,
2013-01-19 04:55:00,48.2,34.6,30.13,NW,321,0.0,0.0,59,0.00,,,0.00,WeatherTracker,2013-01-19 12:55:00,
2013-01-19 05:00:00,48.4,34.3,30.13,NW,317,0.0,0.0,58,0.00,,,0.00,WeatherTracker,2013-01-19 13:00:00,
2013-01-19 05:05:00,48.5,34.8,30.13,NW,322,0.0,0.0,59,0.00,,,0.00,WeatherTracker,2013-01-19 13:05:00,
2013-01-19 05:10:00,49.2,35.1,30.13,NW,304,0.0,0.0,58,0.00,,,0.00,WeatherTracker,2013-01-19 13:10:00,
2013-01-19 05:15:00,49.6,35.0,30.13,NW,321,0.0,0.0,57,0.00,,,0.00,WeatherTracker,2013-01-19 13:15:00,
2013-01-19 05:20:00,49.7,35.5,30.13,WNW,294,0.0,0.0,58,0.00,,,0.00,WeatherTracker,2013-01-19 13:20:00,
2013-01-19 05:25:00,49.6,35.9,30.13,NNW,336,0.0,0.0,59,0.00,,,0.00,WeatherTracker,2013-01-19 13:25:00,
2013-01-19 05:30:00,49.1,36.6,30.14,NNW,333,0.0,0.0,62,0.00,,,0.00,WeatherTracker,2013-01-19 13:30:00,
2013-01-19 05:35:00,48.5,35.7,30.14,NNW,327,0.0,0.0,61,0.00,,,0.00,WeatherTracker,2013-01-19 13:35:00,
2013-01-19 05:40:00,48.6,35.4,30.14,NW,319,0.0,0.0,60,0.00,,,0.00,WeatherTracker,2013-01-19 13:40:00,
2013-01-19 05:45:00,49.3,35.2,30.14,NW,310,0.0,0.0,58,0.00,,,0.00,WeatherTracker,2013-01-19 13:45:00,
2013-01-19 05:50:00,49.5,35.8,30.14,NW,323,0.0,0.0,59,0.00,,,0.00,WeatherTracker,2013-01-19 13:50:00,
2013-01-19 05:55:00,48.9,35.6,30.14,North,350,0.0,0.0,60,0.00,,,0.00,WeatherTracker,2013-01-19 13:55:00,
2013-01-19 06:00:00,48.6,35.8,30.14,NNW,330,0.0,0.0,61,0.00,,,0.00,WeatherTracker,2013-01-19 14:00:00,
2013-01-19 06:05:00,48.3,36.3,30.14,North,355,0.0,0.0,63,0.00,,,0.00,WeatherTracker,2013-01-19 14:05:00,
2013-01-19 06:10:00,47.7,36.9,30.14,North,349,0.0,0.0,66,0.00,,,0.00,WeatherTracker,2013-01-19 14:10:00,
2013-01-19 06:15:00,47.2,36.4,30.15,North,350,0.0,0.0,66,0.00,,,0.00,WeatherTracker,2013-01-19 14:15:00,
2013-01-19 06:20:00,47.2,36.4,30.15,NW,321,0.0,0.0,66,0.00,,,0.00,WeatherTracker,2013-01-19 14:20:00,
2013-01-19 06:25:00,47.1,35.9,30.15,NNW,330,0.0,0.0,65,0.00,,,0.00,WeatherTracker,2013-01-19 14:25:00,
2013-01-19 06:30:00,47.1,35.9,30.15,NNW,333,0.0,0.0,65,0.00,,,0.00,WeatherTracker,2013-01-19 14:30:00,
2013-01-19 06:35:00,46.9,36.1,30.15,NNW,336,0.0,0.0,66,0.00,,,0.00,WeatherTracker,2013-01-19 14:35:00,
2013-01-19 06:40:00,46.8,35.7,30.15,NNW,328,0.0,0.0,65,0.00,,,0.00,WeatherTracker,2013-01-19 14:40:00,
2013-01-19 06:45:00,46.9,36.1,30.15,NNW,337,0.0,0.0,66,0.00,,,0.00,WeatherTracker,2013-01-19 14:45:00,
2013-01-19 06:50:00,47.2,35.7,30.15,NNW,337,0.0,0.0,64,0.00,,,0.00,WeatherTracker,2013-01-19 14:50:00,
2013-01-19 06:55:00,47.3,36.1,30.15,NW,313,0.0,0.0,65,0.00,,,0.00,WeatherTracker,2013-01-19 14:55:00,
2013-01-19 07:01:00,47.4,36.2,30.15,North,350,0.0,0.0,65,0.00,,,0.00,WeatherTracker,2013-01-19 15:01:00,
2013-01-19 07:06:00,47.5,35.9,30.15,NNW,340,0.0,0.0,64,0.00,,,0.00,WeatherTracker,2013-01-19 15:06:00,
2013-01-19 07:11:00,47.5,36.3,30.15,NNW,327,0.0,0.0,65,0.00,,,0.00,WeatherTracker,2013-01-19 15:11:00,
2013-01-19 07:16:00,47.6,35.6,30.16,NW,321,0.0,0.0,63,0.00,,,0.00,WeatherTracker,2013-01-19 15:16:00,
2013-01-19 07:21:00,47.6,36.0,30.16,NNW,344,0.0,0.0,64,0.00,,,0.00,WeatherTracker,2013-01-19 15:21:00,
2013-01-19 07:26:00,47.5,37.1,30.16,North,355,0.0,0.0,67,0.00,,,0.00,WeatherTracker,2013-01-19 15:26:00,
2013-01-19 07:31:00,47.3,36.9,30.16,North,360,0.0,0.0,67,0.00,,,0.00,WeatherTracker,2013-01-19 15:31:00,
2013-01-19 07:36:00,47.5,37.5,30.16,North,355,0.0,0.0,68,0.00,,,0.00,WeatherTracker,2013-01-19 15:36:00,
2013-01-19 07:41:00,47.5,36.3,30.16,NNW,331,0.0,0.0,65,0.00,,,0.00,WeatherTracker,2013-01-19 15:41:00,
2013-01-19 07:46:00,48.1,36.5,30.16,NNW,340,0.0,0.0,64,0.00,,,0.00,WeatherTracker,2013-01-19 15:46:00,
2013-01-19 07:51:00,48.1,36.1,30.16,NNW,327,0.0,0.0,63,0.00,,,0.00,WeatherTracker,2013-01-19 15:51:00,
2013-01-19 07:56:00,48.1,36.9,30.16,North,350,0.0,0.0,65,0.00,,,0.00,WeatherTracker,2013-01-19 15:56:00,
2013-01-19 08:01:00,48.2,37.0,30.16,NW,325,0.0,0.0,65,0.00,,,0.00,WeatherTracker,2013-01-19 16:01:00,
2013-01-19 08:06:00,48.6,36.6,30.16,North,350,0.0,0.0,63,0.00,,,0.00,WeatherTracker,2013-01-19 16:06:00,
2013-01-19 08:11:00,48.8,38.0,30.16,NNW,348,0.0,0.0,66,0.00,,,0.00,WeatherTracker,2013-01-19 16:11:00,
2013-01-19 08:16:00,48.8,37.6,30.16,NNW,344,0.0,0.0,65,0.00,,,0.00,WeatherTracker,2013-01-19 16:16:00,
2013-01-19 08:21:00,49.4,36.9,30.16,NW,319,0.0,0.0,62,0.00,,,0.00,WeatherTracker,2013-01-19 16:21:00,
2013-01-19 08:27:00,50.0,36.7,30.16,NW,307,0.0,0.0,60,0.00,,,0.00,WeatherTracker,2013-01-19 16:27:00,
2013-01-19 08:32:00,50.4,36.6,30.16,NW,309,0.0,0.0,59,0.00,,,0.00,WeatherTracker,2013-01-19 16:32:00,
2013-01-19 08:37:00,50.7,36.9,30.16,NW,311,0.0,0.0,59,0.00,,,0.00,WeatherTracker,2013-01-19 16:37:00,
2013-01-19 08:42:00,51.0,37.2,30.16,NW,319,0.0,0.0,59,0.00,,,0.00,WeatherTracker,2013-01-19 16:42:00,
2013-01-19 08:47:00,51.3,37.0,30.17,WNW,300,0.0,0.0,58,0.00,,,0.00,WeatherTracker,2013-01-19 16:47:00,
2013-01-19 08:52:00,51.5,37.7,30.17,NNW,344,0.0,0.0,59,0.00,,,0.00,WeatherTracker,2013-01-19 16:52:00,
2013-01-19 08:57:00,51.7,37.8,30.17,NW,310,0.0,0.0,59,0.00,,,0.00,WeatherTracker,2013-01-19 16:57:00,
2013-01-19 09:02:00,51.9,38.5,30.18,NNW,343,0.0,0.0,60,0.00,,,0.00,WeatherTracker,2013-01-19 17:02:00,
2013-01-19 09:07:00,52.1,38.6,30.18,WNW,300,0.0,0.0,60,0.00,,,0.00,WeatherTracker,2013-01-19 17:07:00,
2013-01-19 09:12:00,52.4,38.5,30.18,NW,313,0.0,0.0,59,0.00,,,0.00,WeatherTracker,2013-01-19 17:12:00,
2013-01-19 09:18:00,52.7,38.8,30.19,NW,319,0.0,0.0,59,0.00,,,0.00,WeatherTracker,2013-01-19 17:18:00,
2013-01-19 09:23:00,53.0,38.6,30.19,NW,313,0.0,0.0,58,0.00,,,0.00,WeatherTracker,2013-01-19 17:23:00,
2013-01-19 09:28:00,53.2,38.4,30.19,NNW,340,0.0,0.0,57,0.00,,,0.00,WeatherTracker,2013-01-19 17:28:00,
2013-01-19 09:33:00,53.4,38.6,30.19,NW,319,0.0,0.0,57,0.00,,,0.00,WeatherTracker,2013-01-19 17:33:00,
2013-01-19 09:38:00,53.6,38.7,30.19,NW,324,0.0,0.0,57,0.00,,,0.00,WeatherTracker,2013-01-19 17:38:00,
2013-01-19 09:43:00,53.7,38.8,30.19,NNW,334,0.0,0.0,57,0.00,,,0.00,WeatherTracker,2013-01-19 17:43:00,
2013-01-19 09:48:00,53.7,38.8,30.19,NNW,339,0.0,0.0,57,0.00,,,0.00,WeatherTracker,2013-01-19 17:48:00,
2013-01-19 09:53:00,53.8,38.5,30.19,NNW,336,0.0,0.0,56,0.00,,,0.00,WeatherTracker,2013-01-19 17:53:00,
2013-01-19 09:58:00,53.9,38.1,30.19,NNW,344,0.0,0.0,55,0.00,,,0.00,WeatherTracker,2013-01-19 17:58:00,
2013-01-19 10:04:00,54.1,38.3,30.20,NNW,329,0.0,0.0,55,0.00,,,0.00,WeatherTracker,2013-01-19 18:04:00,
2013-01-19 10:09:00,54.3,38.5,30.20,NNW,340,0.0,0.0,55,0.00,,,0.00,WeatherTracker,2013-01-19 18:09:00,
2013-01-19 10:14:00,54.3,38.0,30.20,NNW,330,0.0,0.0,54,0.00,,,0.00,WeatherTracker,2013-01-19 18:14:00,
2013-01-19 10:19:00,54.2,37.9,30.20,NNW,338,0.0,0.0,54,0.00,,,0.00,WeatherTracker,2013-01-19 18:19:00,
2013-01-19 10:24:00,54.4,38.1,30.20,NNW,330,0.0,0.0,54,0.00,,,0.00,WeatherTracker,2013-01-19 18:24:00,
2013-01-19 10:29:00,54.7,38.4,30.19,NW,306,0.0,0.0,54,0.00,,,0.00,WeatherTracker,2013-01-19 18:29:00,
2013-01-19 10:34:00,54.8,38.0,30.19,NNW,342,0.0,0.0,53,0.00,,,0.00,WeatherTracker,2013-01-19 18:34:00,
2013-01-19 10:39:00,55.0,37.7,30.19,NNW,344,0.0,0.0,52,0.00,,,0.00,WeatherTracker,2013-01-19 18:39:00,
2013-01-19 10:44:00,55.2,37.9,30.19,NNW,329,0.0,0.0,52,0.00,,,0.00,WeatherTracker,2013-01-19 18:44:00,
2013-01-19 10:49:00,55.4,38.1,30.19,NNW,336,0.0,0.0,52,0.00,,,0.00,WeatherTracker,2013-01-19 18:49:00,
2013-01-19 10:54:00,55.5,37.7,30.19,NNW,340,0.0,0.0,51,0.00,,,0.00,WeatherTracker,2013-01-19 18:54:00,
2013-01-19 11:00:00,55.8,37.4,30.19,NNW,346,0.0,0.0,50,0.00,,,0.00,WeatherTracker,2013-01-19 19:00:00,
2013-01-19 11:05:00,56.0,37.6,30.19,North,350,0.0,0.0,50,0.00,,,0.00,WeatherTracker,2013-01-19 19:05:00,
2013-01-19 11:10:00,56.4,37.0,30.19,NNW,327,0.0,0.0,48,0.00,,,0.00,WeatherTracker,2013-01-19 19:10:00,
2013-01-19 11:15:00,56.7,36.2,30.18,NNW,333,0.0,0.0,46,0.00,,,0.00,WeatherTracker,2013-01-19 19:15:00,
2013-01-19 11:20:00,57.2,35.5,30.18,NNW,340,0.0,0.0,44,0.00,,,0.00,WeatherTracker,2013-01-19 19:20:00,
2013-01-19 11:25:00,57.4,35.7,30.18,NW,313,0.0,0.0,44,0.00,,,0.00,WeatherTracker,2013-01-19 19:25:00,
2013-01-19 11:30:00,57.2,36.6,30.17,NNW,348,0.0,0.0,46,0.00,,,0.00,WeatherTracker,2013-01-19 19:30:00,
2013-01-19 11:35:00,57.1,37.1,30.17,North,360,0.0,0.0,47,0.00,,,0.00,WeatherTracker,2013-01-19 19:35:00,
2013-01-19 11:40:00,57.2,37.2,30.17,North,355,0.0,0.0,47,0.00,,,0.00,WeatherTracker,2013-01-19 19:40:00,
2013-01-19 11:45:00,57.3,36.7,30.16,North,349,0.0,0.0,46,0.00,,,0.00,WeatherTracker,2013-01-19 19:45:00,
2013-01-19 11:50:00,57.4,37.3,30.16,NNW,348,0.0,0.0,47,0.00,,,0.00,WeatherTracker,2013-01-19 19:50:00,
2013-01-19 11:55:00,57.4,37.3,30.16,North,355,0.0,0.0,47,0.00,,,0.00,WeatherTracker,2013-01-19 19:55:00,
2013-01-19 12:00:00,57.5,37.4,30.16,North,5,0.0,0.0,47,0.00,,,0.00,WeatherTracker,2013-01-19 20:00:00,
2013-01-19 12:05:00,57.7,37.6,30.16,North,355,0.0,0.0,47,0.00,,,0.00,WeatherTracker,2013-01-19 20:05:00,
2013-01-19 12:10:00,58.0,37.9,30.16,North,360,0.0,0.0,47,0.00,,,0.00,WeatherTracker,2013-01-19 20:10:00,
2013-01-19 12:16:00,58.3,38.2,30.15,NNW,331,0.0,0.0,47,0.00,,,0.00,WeatherTracker,2013-01-19 20:16:00,
2013-01-19 12:21:00,58.5,38.3,30.15,North,355,0.0,0.0,47,0.00,,,0.00,WeatherTracker,2013-01-19 20:21:00,
2013-01-19 12:26:00,58.6,38.4,30.15,NW,325,0.0,0.0,47,0.00,,,0.00,WeatherTracker,2013-01-19 20:26:00,
2013-01-19 12:31:00,58.9,38.7,30.15,North,349,0.0,0.0,47,0.00,,,0.00,WeatherTracker,2013-01-19 20:31:00,
2013-01-19 12:36:00,59.0,38.8,30.15,NNW,348,0.0,0.0,47,0.00,,,0.00,WeatherTracker,2013-01-19 20:36:00,
2013-01-19 12:41:00,58.9,38.2,30.15,NNW,344,0.0,0.0,46,0.00,,,0.00,WeatherTracker,2013-01-19 20:41:00,
2013-01-19 12:47:00,59.1,38.9,30.14,NNW,334,0.0,0.0,47,0.00,,,0.00,WeatherTracker,2013-01-19 20:47:00,
2013-01-19 12:52:00,59.1,38.3,30.14,NW,323,0.0,0.0,46,0.00,,,0.00,WeatherTracker,2013-01-19 20:52:00,
2013-01-19 12:57:00,59.2,39.0,30.14,NW,324,0.0,0.0,47,0.00,,,0.00,WeatherTracker,2013-01-19 20:57:00,
2013-01-19 13:03:00,59.5,40.3,30.13,NNW,327,0.0,0.0,49,0.00,,,0.00,WeatherTracker,2013-01-19 21:03:00,
2013-01-19 13:08:00,59.4,40.2,30.13,NNW,336,0.0,0.0,49,0.00,,,0.00,WeatherTracker,2013-01-19 21:08:00,
2013-01-19 13:13:00,59.4,40.2,30.13,NNW,348,0.0,0.0,49,0.00,,,0.00,WeatherTracker,2013-01-19 21:13:00,
2013-01-19 13:18:00,59.4,40.2,30.13,NNW,330,0.0,0.0,49,0.00,,,0.00,WeatherTracker,2013-01-19 21:18:00,
2013-01-19 13:23:00,59.5,40.3,30.13,NNW,331,0.0,0.0,49,0.00,,,0.00,WeatherTracker,2013-01-19 21:23:00,
2013-01-19 13:28:00,59.3,39.6,30.13,NNW,344,0.0,0.0,48,0.00,,,0.00,WeatherTracker,2013-01-19 21:28:00,
2013-01-19 13:33:00,59.6,40.4,30.13,NW,315,0.0,0.0,49,0.00,,,0.00,WeatherTracker,2013-01-19 21:33:00,
2013-01-19 13:39:00,59.7,39.4,30.13,NNW,340,0.0,0.0,47,0.00,,,0.00,WeatherTracker,2013-01-19 21:39:00,
2013-01-19 13:44:00,59.9,39.6,30.12,NNW,333,0.0,0.0,47,0.00,,,0.00,WeatherTracker,2013-01-19 21:44:00,
2013-01-19 13:49:00,60.2,40.4,30.12,NNW,338,0.0,0.0,48,0.00,,,0.00,WeatherTracker,2013-01-19 21:49:00,
2013-01-19 13:54:00,60.3,40.0,30.12,NNW,340,0.0,0.0,47,0.00,,,0.00,WeatherTracker,2013-01-19 21:54:00,
2013-01-19 13:59:00,60.5,40.7,30.11,NNW,333,0.0,0.0,48,0.00,,,0.00,WeatherTracker,2013-01-19 21:59:00,
2013-01-19 14:04:00,60.5,40.7,30.11,NNW,327,0.0,0.0,48,0.00,,,0.00,WeatherTracker,2013-01-19 22:04:00,
2013-01-19 14:09:00,60.4,40.1,30.11,NNW,327,0.0,0.0,47,0.00,,,0.00,WeatherTracker,2013-01-19 22:09:00,
2013-01-19 14:15:00,60.6,40.8,30.11,NNW,329,0.0,0.0,48,0.00,,,0.00,WeatherTracker,2013-01-19 22:15:00,
2013-01-19 14:20:00,60.7,40.9,30.11,NNW,339,0.0,0.0,48,0.00,,,0.00,WeatherTracker,2013-01-19 22:20:00,
2013-01-19 14:25:00,60.6,41.3,30.11,North,360,0.0,0.0,49,0.00,,,0.00,WeatherTracker,2013-01-19 22:25:00,
2013-01-19 14:30:00,60.7,41.4,30.11,NNW,330,0.0,0.0,49,0.00,,,0.00,WeatherTracker,2013-01-19 22:30:00,
2013-01-19 14:35:00,60.8,41.5,30.11,NW,326,0.0,0.0,49,0.00,,,0.00,WeatherTracker,2013-01-19 22:35:00,
2013-01-19 14:40:00,60.9,41.6,30.11,NNW,334,0.0,0.0,49,0.00,,,0.00,WeatherTracker,2013-01-19 22:40:00,
2013-01-19 14:45:00,60.8,41.5,30.11,NNW,328,0.0,0.0,49,0.00,,,0.00,WeatherTracker,2013-01-19 22:45:00,
2013-01-19 14:50:00,60.5,41.8,30.11,NNW,340,0.0,0.0,50,0.00,,,0.00,WeatherTracker,2013-01-19 22:50:00,
2013-01-19 14:55:00,60.5,42.3,30.11,NW,322,0.0,0.0,51,0.00,,,0.00,WeatherTracker,2013-01-19 22:55:00,
2013-01-19 15:00:00,60.4,42.2,30.10,NW,321,0.0,0.0,51,0.00,,,0.00,WeatherTracker,2013-01-19 23:00:00,
2013-01-19 15:05:00,60.3,42.1,30.10,NNW,343,0.0,0.0,51,0.00,,,0.00,WeatherTracker,2013-01-19 23:05:00,
2013-01-19 15:10:00,60.4,42.2,30.10,NW,326,0.0,0.0,51,0.00,,,0.00,WeatherTracker,2013-01-19 23:10:00,
2013-01-19 15:15:00,60.4,42.7,30.10,NNW,348,0.0,0.0,52,0.00,,,0.00,WeatherTracker,2013-01-19 23:15:00,
2013-01-19 15:20:00,60.3,43.1,30.10,NNW,334,0.0,0.0,53,0.00,,,0.00,WeatherTracker,2013-01-19 23:20:00,
2013-01-19 15:25:00,60.0,42.8,30.10,NNW,338,0.0,0.0,53,0.00,,,0.00,WeatherTracker,2013-01-19 23:25:00,
2013-01-19 15:31:00,60.0,42.8,30.10,NNW,334,0.0,0.0,53,0.00,,,0.00,WeatherTracker,2013-01-19 23:31:00,
2013-01-19 15:36:00,59.9,43.2,30.10,NNW,341,0.0,0.0,54,0.00,,,0.00,WeatherTracker,2013-01-19 23:36:00,
2013-01-19 15:41:00,59.8,43.6,30.10,NNW,331,0.0,0.0,55,0.00,,,0.00,WeatherTracker,2013-01-19 23:41:00,
2013-01-19 15:46:00,59.7,43.0,30.10,NW,317,0.0,0.0,54,0.00,,,0.00,WeatherTracker,2013-01-19 23:46:00,
2013-01-19 15:51:00,59.6,43.4,30.10,NW,311,0.0,0.0,55,0.00,,,0.00,WeatherTracker,2013-01-19 23:51:00,
2013-01-19 15:56:00,59.4,43.2,30.10,NW,317,0.0,0.0,55,0.00,,,0.00,WeatherTracker,2013-01-19 23:56:00,
2013-01-19 16:02:00,59.5,43.3,30.10,NNW,334,0.0,0.0,55,0.00,,,0.00,WeatherTracker,2013-01-20 00:02:00,
2013-01-19 16:07:00,59.3,43.1,30.10,NW,323,0.0,0.0,55,0.00,,,0.00,WeatherTracker,2013-01-20 00:07:00,
2013-01-19 16:12:00,59.0,42.9,30.10,NNW,327,0.0,0.0,55,0.00,,,0.00,WeatherTracker,2013-01-20 00:12:00,
2013-01-19 16:17:00,58.7,43.0,30.10,NW,307,0.0,0.0,56,0.00,,,0.00,WeatherTracker,2013-01-20 00:17:00,
2013-01-19 16:22:00,58.4,42.8,30.10,NW,318,0.0,0.0,56,0.00,,,0.00,WeatherTracker,2013-01-20 00:22:00,
2013-01-19 16:27:00,58.2,42.6,30.10,NW,315,0.0,0.0,56,0.00,,,0.00,WeatherTracker,2013-01-20 00:27:00,
2013-01-19 16:32:00,58.1,42.9,30.10,NW,326,0.0,0.0,57,0.00,,,0.00,WeatherTracker,2013-01-20 00:32:00,
2013-01-19 16:37:00,58.1,42.0,30.10,NW,326,0.0,0.0,55,0.00,,,0.00,WeatherTracker,2013-01-20 00:37:00,
2013-01-19 16:43:00,58.1,42.0,30.10,NNW,332,0.0,0.0,55,0.00,,,0.00,WeatherTracker,2013-01-20 00:43:00,
2013-01-19 16:48:00,57.9,41.8,30.10,NW,322,0.0,0.0,55,0.00,,,0.00,WeatherTracker,2013-01-20 00:48:00,
2013-01-19 16:53:00,57.7,41.6,30.10,NW,310,0.0,0.0,55,0.00,,,0.00,WeatherTracker,2013-01-20 00:53:00,
2013-01-19 16:58:00,57.8,41.3,30.10,WNW,299,0.0,0.0,54,0.00,,,0.00,WeatherTracker,2013-01-20 00:58:00,
2013-01-19 17:03:00,57.9,40.9,30.10,NW,315,0.0,0.0,53,0.00,,,0.00,WeatherTracker,2013-01-20 01:03:00,
2013-01-19 17:08:00,58.2,40.7,30.10,NW,320,0.0,0.0,52,0.00,,,0.00,WeatherTracker,2013-01-20 01:08:00,
2013-01-19 17:13:00,58.4,40.8,30.10,WNW,302,0.0,0.0,52,0.00,,,0.00,WeatherTracker,2013-01-20 01:13:00,
2013-01-19 17:18:00,58.4,40.3,30.10,WNW,294,0.0,0.0,51,0.00,,,0.00,WeatherTracker,2013-01-20 01:18:00,
2013-01-19 17:23:00,58.4,40.3,30.10,NW,310,0.0,0.0,51,0.00,,,0.00,WeatherTracker,2013-01-20 01:23:00,
2013-01-19 17:28:00,58.4,40.3,30.10,WNW,300,0.0,0.0,51,0.00,,,0.00,WeatherTracker,2013-01-20 01:28:00,
2013-01-19 17:33:00,58.5,39.9,30.10,WNW,294,0.0,0.0,50,0.00,,,0.00,WeatherTracker,2013-01-20 01:33:00,
2013-01-19 17:38:00,58.6,39.5,30.10,NW,313,0.0,0.0,49,0.00,,,0.00,WeatherTracker,2013-01-20 01:38:00,
2013-01-19 17:44:00,58.6,39.5,30.10,WNW,299,0.0,0.0,49,0.00,,,0.00,WeatherTracker,2013-01-20 01:44:00,
2013-01-19 17:49:00,58.6,39.5,30.10,WNW,298,0.0,0.0,49,0.00,,,0.00,WeatherTracker,2013-01-20 01:49:00,
2013-01-19 17:55:00,58.6,39.0,30.10,NW,308,0.0,0.0,48,0.00,,,0.00,WeatherTracker,2013-01-20 01:55:00,
2013-01-19 18:00:00,58.4,38.8,30.10,WNW,300,0.0,0.0,48,0.00,,,0.00,WeatherTracker,2013-01-20 02:00:00,
2013-01-19 18:05:00,58.2,38.6,30.10,NW,310,0.0,0.0,48,0.00,,,0.00,WeatherTracker,2013-01-20 02:05:00,
2013-01-19 18:10:00,58.2,38.6,30.10,WNW,299,0.0,0.0,48,0.00,,,0.00,WeatherTracker,2013-01-20 02:10:00,
2013-01-19 18:15:00,58.1,38.5,30.10,NW,313,0.0,0.0,48,0.00,,,0.00,WeatherTracker,2013-01-20 02:15:00,
2013-01-19 18:20:00,58.2,38.6,30.10,NW,309,0.0,0.0,48,0.00,,,0.00,WeatherTracker,2013-01-20 02:20:00,
2013-01-19 18:25:00,57.9,38.3,30.10,NW,313,0.0,0.0,48,0.00,,,0.00,WeatherTracker,2013-01-20 02:25:00,
2013-01-19 18:30:00,57.8,38.2,30.10,WNW,302,0.0,0.0,48,0.00,,,0.00,WeatherTracker,2013-01-20 02:30:00,
2013-01-19 18:35:00,57.8,38.2,30.10,NW,318,0.0,0.0,48,0.00,,,0.00,WeatherTracker,2013-01-20 02:35:00,
2013-01-19 18:40:00,57.5,38.0,30.10,NW,319,0.0,0.0,48,0.00,,,0.00,WeatherTracker,2013-01-20 02:40:00,
2013-01-19 18:46:00,57.5,37.4,30.11,NW,305,0.0,0.0,47,0.00,,,0.00,WeatherTracker,2013-01-20 02:46:00,
2013-01-19 18:51:00,57.4,37.3,30.11,NW,317,0.0,0.0,47,0.00,,,0.00,WeatherTracker,2013-01-20 02:51:00,
2013-01-19 18:56:00,57.3,37.2,30.11,NW,322,0.0,0.0,47,0.00,,,0.00,WeatherTracker,2013-01-20 02:56:00,
2013-01-19 19:01:00,57.1,37.6,30.11,NW,326,0.0,0.0,48,0.00,,,0.00,WeatherTracker,2013-01-20 03:01:00,
2013-01-19 19:07:00,57.0,37.5,30.11,NW,315,0.0,0.0,48,0.00,,,0.00,WeatherTracker,2013-01-20 03:07:00,
2013-01-19 19:12:00,56.9,36.9,30.11,NW,306,0.0,0.0,47,0.00,,,0.00,WeatherTracker,2013-01-20 03:12:00,
2013-01-19 19:17:00,57.1,36.5,30.11,NW,312,0.0,0.0,46,0.00,,,0.00,WeatherTracker,2013-01-20 03:17:00,
2013-01-19 19:22:00,57.1,36.5,30.11,NW,313,0.0,0.0,46,0.00,,,0.00,WeatherTracker,2013-01-20 03:22:00,
2013-01-19 19:27:00,57.1,36.0,30.11,NW,311,0.0,0.0,45,0.00,,,0.00,WeatherTracker,2013-01-20 03:27:00,
2013-01-19 19:32:00,57.0,35.9,30.11,WNW,294,0.0,0.0,45,0.00,,,0.00,WeatherTracker,2013-01-20 03:32:00,
2013-01-19 19:37:00,57.1,36.0,30.11,WNW,303,0.0,0.0,45,0.00,,,0.00,WeatherTracker,2013-01-20 03:37:00,
2013-01-19 19:42:00,57.1,35.4,30.11,WNW,293,0.0,0.0,44,0.00,,,0.00,WeatherTracker,2013-01-20 03:42:00,
2013-01-19 19:47:00,57.1,35.4,30.12,WNW,299,0.0,0.0,44,0.00,,,0.00,WeatherTracker,2013-01-20 03:47:00,
2013-01-19 19:52:00,57.2,34.9,30.12,WNW,302,0.0,0.0,43,0.00,,,0.00,WeatherTracker,2013-01-20 03:52:00,
2013-01-19 19:57:00,57.2,34.9,30.12,WNW,300,0.0,0.0,43,0.00,,,0.00,WeatherTracker,2013-01-20 03:57:00,
2013-01-19 20:02:00,57.3,34.4,30.12,WNW,291,0.0,0.0,42,0.00,,,0.00,WeatherTracker,2013-01-20 04:02:00,
2013-01-19 20:07:00,57.4,34.5,30.12,WNW,298,0.0,0.0,42,0.00,,,0.00,WeatherTracker,2013-01-20 04:07:00,
2013-01-19 20:13:00,57.2,34.3,30.12,WNW,291,0.0,0.0,42,0.00,,,0.00,WeatherTracker,2013-01-20 04:13:00,
2013-01-19 20:18:00,57.4,33.9,30.13,West,280,0.0,0.0,41,0.00,,,0.00,WeatherTracker,2013-01-20 04:18:00,
2013-01-19 20:23:00,57.3,33.8,30.13,NW,320,0.0,0.0,41,0.00,,,0.00,WeatherTracker,2013-01-20 04:23:00,
2013-01-19 20:28:00,57.0,33.5,30.13,WNW,297,0.0,0.0,41,0.00,,,0.00,WeatherTracker,2013-01-20 04:28:00,
2013-01-19 20:33:00,56.9,32.8,30.13,NW,305,0.0,0.0,40,0.00,,,0.00,WeatherTracker,2013-01-20 04:33:00,
2013-01-19 20:38:00,56.8,32.7,30.13,NW,310,0.0,0.0,40,0.00,,,0.00,WeatherTracker,2013-01-20 04:38:00,
2013-01-19 20:43:00,56.7,32.7,30.13,NW,315,0.0,0.0,40,0.00,,,0.00,WeatherTracker,2013-01-20 04:43:00,
2013-01-19 20:48:00,56.6,32.6,30.13,NW,306,0.0,0.0,40,0.00,,,0.00,WeatherTracker,2013-01-20 04:48:00,
2013-01-19 20:53:00,56.4,33.0,30.13,WNW,302,0.0,0.0,41,0.00,,,0.00,WeatherTracker,2013-01-20 04:53:00,
2013-01-19 20:58:00,56.3,32.3,30.13,NW,312,0.0,0.0,40,0.00,,,0.00,WeatherTracker,2013-01-20 04:58:00,
2013-01-19 21:00:00,56.3,32.3,30.13,WNW,297,0.0,0.0,40,0.00,,,0.00,WeatherTracker,2013-01-20 05:00:00,
2013-01-19 21:01:00,56.4,32.4,30.13,WNW,292,0.0,0.0,40,0.00,,,0.00,WeatherTracker,2013-01-20 05:01:00,
2013-01-19 21:03:00,56.3,32.3,30.13,NW,309,0.0,0.0,40,0.00,,,0.00,WeatherTracker,2013-01-20 05:03:00,
2013-01-19 21:08:00,56.4,31.8,30.13,NW,306,0.0,0.0,39,0.00,,,0.00,WeatherTracker,2013-01-20 05:08:00,
2013-01-19 21:13:00,56.1,32.1,30.13,NW,315,0.0,0.0,40,0.00,,,0.00,WeatherTracker,2013-01-20 05:13:00,
2013-01-19 21:18:00,55.6,32.3,30.14,NW,314,0.0,0.0,41,0.00,,,0.00,WeatherTracker,2013-01-20 05:18:00,
2013-01-19 21:23:00,55.7,31.8,30.14,NW,304,0.0,0.0,40,0.00,,,0.00,WeatherTracker,2013-01-20 05:23:00,
2013-01-19 21:28:00,55.7,31.8,30.14,NW,313,0.0,0.0,40,0.00,,,0.00,WeatherTracker,2013-01-20 05:28:00,
2013-01-19 21:33:00,55.6,31.7,30.14,WNW,300,0.0,0.0,40,0.00,,,0.00,WeatherTracker,2013-01-20 05:33:00,
2013-01-19 21:38:00,55.9,31.3,30.14,NW,307,0.0,0.0,39,0.00,,,0.00,WeatherTracker,2013-01-20 05:38:00,
2013-01-19 21:43:00,55.8,31.2,30.14,NW,306,0.0,0.0,39,0.00,,,0.00,WeatherTracker,2013-01-20 05:43:00,
2013-01-19 21:48:00,55.7,31.1,30.15,NW,309,0.0,0.0,39,0.00,,,0.00,WeatherTracker,2013-01-20 05:48:00,
2013-01-19 21:53:00,55.8,31.2,30.15,NW,319,0.0,0.0,39,0.00,,,0.00,WeatherTracker,2013-01-20 05:53:00,
2013-01-19 21:58:00,55.5,31.6,30.15,NW,306,0.0,0.0,40,0.00,,,0.00,WeatherTracker,2013-01-20 05:58:00,
2013-01-19 22:03:00,55.5,31.6,30.15,NNW,330,0.0,0.0,40,0.00,,,0.00,WeatherTracker,2013-01-20 06:03:00,
2013-01-19 22:08:00,55.6,31.0,30.15,NW,313,0.0,0.0,39,0.00,,,0.00,WeatherTracker,2013-01-20 06:08:00,
2013-01-19 22:14:00,55.8,30.6,30.16,NW,310,0.0,0.0,38,0.00,,,0.00,WeatherTracker,2013-01-20 06:14:00,
2013-01-19 22:19:00,55.9,30.0,30.16,WNW,298,0.0,0.0,37,0.00,,,0.00,WeatherTracker,2013-01-20 06:19:00,
2013-01-19 22:24:00,55.8,30.6,30.16,NW,306,0.0,0.0,38,0.00,,,0.00,WeatherTracker,2013-01-20 06:24:00,
2013-01-19 22:29:00,56.0,30.1,30.16,WNW,292,0.0,0.0,37,0.00,,,0.00,WeatherTracker,2013-01-20 06:29:00,
2013-01-19 22:34:00,56.1,30.2,30.16,WNW,296,0.0,0.0,37,0.00,,,0.00,WeatherTracker,2013-01-20 06:34:00,
2013-01-19 22:39:00,56.2,29.6,30.16,WNW,292,0.0,0.0,36,0.00,,,0.00,WeatherTracker,2013-01-20 06:39:00,
2013-01-19 22:44:00,56.0,29.4,30.16,WNW,296,0.0,0.0,36,0.00,,,0.00,WeatherTracker,2013-01-20 06:44:00,
2013-01-19 22:49:00,56.1,30.2,30.16,NW,321,0.0,0.0,37,0.00,,,0.00,WeatherTracker,2013-01-20 06:49:00,
2013-01-19 22:54:00,55.6,29.7,30.16,NW,310,0.0,0.0,37,0.00,,,0.00,WeatherTracker,2013-01-20 06:54:00,
2013-01-19 22:59:00,55.3,30.1,30.16,NW,314,0.0,0.0,38,0.00,,,0.00,WeatherTracker,2013-01-20 06:59:00,
2013-01-19 23:05:00,55.2,30.0,30.16,NW,310,0.0,0.0,38,0.00,,,0.00,WeatherTracker,2013-01-20 07:05:00,
2013-01-19 23:10:00,55.1,29.3,30.16,WNW,301,0.0,0.0,37,0.00,,,0.00,WeatherTracker,2013-01-20 07:10:00,
2013-01-19 23:15:00,55.0,29.9,30.16,WNW,300,0.0,0.0,38,0.00,,,0.00,WeatherTracker,2013-01-20 07:15:00,
2013-01-19 23:20:00,54.7,33.8,30.16,NW,316,0.0,0.0,45,0.00,,,0.00,WeatherTracker,2013-01-20 07:20:00,
2013-01-19 23:25:00,53.8,31.8,30.16,NW,325,0.0,0.0,43,0.00,,,0.00,WeatherTracker,2013-01-20 07:25:00,
2013-01-19 23:30:00,53.5,31.0,30.16,WNW,300,0.0,0.0,42,0.00,,,0.00,WeatherTracker,2013-01-20 07:30:00,
2013-01-19 23:35:00,53.5,30.4,30.16,NW,310,0.0,0.0,41,0.00,,,0.00,WeatherTracker,2013-01-20 07:35:00,
2013-01-19 23:40:00,53.2,31.9,30.16,NNW,329,0.0,0.0,44,0.00,,,0.00,WeatherTracker,2013-01-20 07:40:00,
2013-01-19 23:45:00,52.5,33.9,30.16,NNW,342,0.0,0.0,49,0.00,,,0.00,WeatherTracker,2013-01-20 07:45:00,
2013-01-19 23:50:00,51.5,33.5,30.16,NNW,338,0.0,0.0,50,0.00,,,0.00,WeatherTracker,2013-01-20 07:50:00,
2013-01-19 23:55:00,51.6,33.6,30.16,NNW,330,0.0,0.0,50,0.00,,,0.00,WeatherTracker,2013-01-20 07:55:00,